{"data":{"norad_id":63289,"intl_designator":"2025-054B","name":"COSMOS 2586 (RODNIK-S *)","alt_names":[],"object_type":"PAYLOAD","status":"ACTIVE","operator":null,"country":"CIS","launch_date":"2025-03-16","launch_site_code":"PLMSC","launch_vehicle":null,"mission":null,"orbit_class":"UNKNOWN","rcs_meters":null,"size_class":null,"mass_kg":null,"dimensions":null,"purposes":[],"wikipedia_slug":null,"has_3d_model":false,"image_url":null,"decayed_at":null,"tle_current":{"epoch":"2026-09-20T19:49:54.532704Z","epoch_age_seconds":280616,"freshness":"STALE","line1":"1 63289U 25054B   26263.82632561  .00000026  00000+0  11452-3 0  9999","line2":"2 63289  82.4969  18.9913 0021424 172.4787 187.6618 12.42879366 68737","mean_motion":12.42879366,"eccentricity":0.0021424,"inclination_deg":82.4969,"raan_deg":18.9913,"arg_perigee_deg":172.4787,"mean_anomaly_deg":187.6618,"bstar":0.00011452,"rev_number":6873,"period_min":115.85999730886,"perigee_km":1477.5545975056,"apogee_km":1511.2869330182,"semimajor_km":7872.5577652619,"source":"CELESTRAK","updated_at":"2026-09-23T09:00:21.954806Z"}}}